Location: Sperry Observatory
(40.6664°N, 74.3236°W)
Time: 17:56:35
(UTC-04:00)

UOSAT-12 - Visible Passes

Search period start: 07 July 2015 00:00
Search period end: 17 July 2015 00:00
Orbit: 599 x 656 km, 64.6° (Epoch: 07 July)

Date Brightness Start Highest point End Pass type
(mag) Time Alt. Az. Time Alt. Az. Time Alt. Az.
07 Jul 7.7 02:17:57 10° NNW 02:22:29 54° NE 02:24:26 31° ESE visible
07 Jul 8.7 03:59:14 10° WNW 04:01:37 16° W 04:01:37 16° W visible
08 Jul 9.7 00:58:53 10° N 01:01:55 17° NE 01:05:02 10° E visible
08 Jul 7.0 02:37:59 10° NW 02:42:36 70° WSW 02:42:40 70° SW visible
09 Jul 8.7 01:18:17 10° NNW 01:22:25 31° NE 01:23:55 25° E visible
09 Jul 8.4 02:58:28 10° NW 03:01:10 26° W 03:01:10 26° W visible
10 Jul 9.9 00:00:10 10° NNE 00:01:33 11° NE 00:03:05 10° NE visible
10 Jul 7.4 01:38:05 10° NNW 01:42:35 64° NE 01:42:35 64° NE visible
11 Jul 9.3 00:18:51 10° N 00:22:13 20° NE 00:24:08 16° ENE visible
11 Jul 8.0 01:58:12 10° NW 02:01:24 40° WNW 02:01:24 40° WNW visible
12 Jul 8.2 00:38:22 10° NNW 00:42:39 36° NE 00:43:02 36° ENE visible
12 Jul 9.1 02:18:49 10° WNW 02:20:18 17° WNW 02:20:18 17° WNW visible
12 Jul 9.7 23:19:50 10° N 23:21:52 13° NE 23:24:02 10° ENE visible
13 Jul 7.6 00:58:13 10° NNW 01:02:03 58° NNW 01:02:03 58° NNW visible
13 Jul 9.0 23:38:50 10° N 23:42:28 22° NE 23:43:50 20° ENE visible
14 Jul 8.5 01:18:26 10° NW 01:21:07 31° WNW 01:21:07 31° WNW visible
14 Jul 7.9 23:58:27 10° NNW 00:02:51 43° NE 00:02:58 43° NE visible
15 Jul 9.4 01:39:13 10° WNW 01:40:15 14° WNW 01:40:15 14° WNW visible
15 Jul 9.5 22:39:39 10° N 22:42:10 15° NE 22:44:48 10° ENE visible
16 Jul 7.6 00:18:23 10° NNW 00:22:09 59° NW 00:22:09 59° NW visible
16 Jul 8.7 22:58:52 10° N 23:02:43 26° NE 23:04:07 22° ENE visible
